Plattsburgh, NY

6:12 AM EDT on June 29, 2017 (GMT -0400)
Plattsburgh International

Weather History for KPBG - December, 2011

Change the Weather History Date:

Monday, December 5, 2011

  Actual Average Record
Temperature  
Mean Temperature 48 °F 29 °F  
Max Temperature 50 °F 37 °F 56 °F (1951)
Min Temperature 45 °F 21 °F 0 °F (1971)
Degree Days  
Heating Degree Days 17 36  
Month to date heating degree days 147 177  
Since 1 July heating degree days 1451 1811  
Cooling Degree Days 0 0  
Month to date cooling degree days 0  
Year to date cooling degree days 346  
Moisture  
Dew Point 41 °F    
Average Humidity 79    
Maximum Humidity 93    
Minimum Humidity 65    
Precipitation  
Precipitation 0.12 in - 0.50 in (1958)
Month to date precipitation 0.13  
Year to date precipitation 37.93  
Sea Level Pressure  
Sea Level Pressure 30.18 in    
Wind  
Wind Speed 4 mph (SSE)    
Max Wind Speed 12 mph    
Max Gust Speed 14 mph    
Visibility 8 miles    
Events Rain    
T = Trace of Precipitation, MM = Missing Value Source: NWS Daily Summary

Daily Weather History Graph

Daily Weather History Graph

Search for Another Location

Airport or City:

Trip Planner

Search our weather history database for the weather conditions in past years. The results will help you decide how hot, cold, wet, or windy it might be!

Date:

Astronomy

Dec. 05, 2011 Rise Set
Actual Time 7:14 AM EST 4:13 PM EST
Civil Twilight 6:41 AM EST 4:47 PM EST
Nautical Twilight 6:05 AM EST 5:23 PM EST
Astronomical Twilight 5:29 AM EST 5:58 PM EST
Moon 1:17 PM EST (12/5) 2:25 AM EST (12/5)
Length of Visible Light 10h 05m
Length of Day
8h 59m
Waxing Gibbous, 79% of the Moon is Illuminated
Dec 5
Waxing Gibbous
Dec 10
Full
Dec 17
Last Quarter
Dec 24
New
Jan 1
First Quarter

Hourly Weather History & Observations

Time (EST) Temp. Windchill Dew Point Humidity Pressure Visibility Wind Dir Wind Speed Gust Speed Precip Events Conditions
12:53 AM 46.0 °F 43.1 °F 35.1 °F 66% 30.22 in 10.0 mi SSE 5.8 mph - N/A   Mostly Cloudy
1:53 AM 46.0 °F 43.9 °F 35.1 °F 66% 30.23 in 10.0 mi South 4.6 mph - N/A   Overcast
2:53 AM 45.0 °F - 36.0 °F 71% 30.24 in 10.0 mi Calm Calm - N/A   Overcast
3:53 AM 46.0 °F 41.9 °F 37.0 °F 71% 30.23 in 10.0 mi SSE 8.1 mph - N/A   Overcast
5:53 AM 46.0 °F 44.8 °F 37.0 °F 71% 30.23 in 10.0 mi South 3.5 mph - N/A   Overcast
6:53 AM 45.0 °F 41.8 °F 37.9 °F 76% 30.24 in 10.0 mi South 5.8 mph - N/A   Mostly Cloudy
7:53 AM 46.0 °F 43.1 °F 37.9 °F 73% 30.25 in 10.0 mi SSE 5.8 mph - N/A   Overcast
8:53 AM 46.9 °F - 39.0 °F 74% 30.25 in 10.0 mi South 6.9 mph - N/A   Mostly Cloudy
9:53 AM 46.9 °F - 39.0 °F 74% 30.25 in 10.0 mi SSE 5.8 mph - N/A   Overcast
11:53 AM 48.0 °F - 39.0 °F 71% 30.23 in 10.0 mi SSE 5.8 mph - N/A   Overcast
12:53 PM 46.9 °F - 39.9 °F 77% 30.20 in 10.0 mi SSE 3.5 mph - 0.00 in   Overcast
1:53 PM 48.9 °F - 39.9 °F 71% 30.18 in 10.0 mi South 8.1 mph - N/A   Overcast
2:53 PM 48.9 °F - 39.9 °F 71% 30.16 in 10.0 mi SE 3.5 mph - N/A   Overcast
3:53 PM 48.9 °F - 39.9 °F 71% 30.15 in 10.0 mi Calm Calm - N/A   Overcast
4:53 PM 48.0 °F - 39.9 °F 74% 30.15 in 10.0 mi Calm Calm - N/A   Overcast
5:53 PM 46.9 °F - 41.0 °F 80% 30.17 in 10.0 mi Calm Calm - N/A   Overcast
6:53 PM 46.9 °F - 41.0 °F 80% 30.17 in 10.0 mi North 8.1 mph - N/A   Overcast
7:17 PM 46.4 °F 44.3 °F 42.8 °F 87% 30.16 in 7.0 mi NNW 4.6 mph - 0.00 in Rain Light Rain
7:42 PM 46.4 °F 43.5 °F 44.6 °F 93% 30.16 in 5.0 mi NW 5.8 mph - 0.01 in   Overcast
7:53 PM 46.0 °F - 44.1 °F 93% 30.17 in 6.0 mi Calm Calm - 0.01 in   Overcast
8:53 PM 46.0 °F 44.8 °F 45.0 °F 96% 30.16 in 6.0 mi NW 3.5 mph - 0.01 in Rain Light Rain
9:26 PM 46.4 °F - 44.6 °F 93% 30.15 in 5.0 mi Calm Calm - 0.00 in Rain Light Rain
9:31 PM 46.4 °F 45.2 °F 44.6 °F 93% 30.15 in 5.0 mi NNW 3.5 mph - 0.00 in Rain Light Rain
10:05 PM 46.4 °F 43.5 °F 44.6 °F 93% 30.14 in 5.0 mi NNW 5.8 mph - 0.00 in Rain Light Rain
10:14 PM 46.4 °F 43.5 °F 44.6 °F 93% 30.14 in 6.0 mi North 5.8 mph - 0.00 in Rain Light Rain
10:50 PM 46.4 °F 45.2 °F 44.6 °F 93% 30.14 in 4.0 mi NNW 3.5 mph - 0.02 in Rain Light Rain
10:53 PM 46.0 °F - 45.0 °F 96% 30.15 in 4.0 mi Calm Calm - 0.03 in Rain Light Rain
11:18 PM 46.4 °F - 44.6 °F 93% 30.13 in 3.0 mi Calm Calm - 0.02 in Rain Light Rain
11:53 PM 46.0 °F - 44.1 °F 93% 30.12 in 3.0 mi Calm Calm - 0.04 in Rain Light Rain